Location: Holiday Acres Laynes 2 Mobile Home Park
(26.7249°N, 81.8671°W)
Time: 05:49:22
(UTC+00:00)

Cosmos 1782 - Pass Details

Date: 25 November 2020
Orbit: 537 x 551 km, 82.5° (Epoch: 21 January)

Event Time Altitude Azimuth Distance (km) Brightness Sun altitude
Rises 23:12:59 0° 165° (SSE) 2,673 6.4 -8.9°
Reaches altitude 10° 23:15:16 10° 155° (SSE) 1,787 5.4 -9.4°
Maximum altitude 23:18:47 32° 92° (E) 937 3.5 -10.1°
Drops below altitude 10° 23:22:19 10° 28° (NNE) 1,800 5.0 -10.9°
Enters shadow 23:23:29 - 22° (NNE) 2,240 5.5 -11.1°
